Time,TemperatureF,DewpointF,PressureIn,WindDirection,WindDirectionDegrees,WindSpeedMPH,WindSpeedGustMPH,Humidity,HourlyPrecipIn,Conditions,Clouds,dailyrainin,SolarRadiationWatts/m^2,SoftwareType,DateUTC
2013-04-17 00:02:00,73.0,56.0,30.48,SE,134,2.0,8.0,55,0.00,,,0.00,85.000000,,2013-04-17 00:02:00,
2013-04-17 00:12:00,73.0,56.0,30.48,SE,134,2.0,8.0,55,0.00,,,0.00,85.000000,,2013-04-17 00:12:00,
2013-04-17 00:32:00,67.0,54.0,30.48,SE,132,3.0,6.0,63,0.00,,,-99.99,13.000000,,2013-04-17 00:32:00,
2013-04-17 00:42:00,67.0,54.0,30.48,SE,132,3.0,6.0,63,0.00,,,-99.99,13.000000,,2013-04-17 00:42:00,
2013-04-17 00:52:00,67.0,54.0,30.48,SE,132,3.0,6.0,63,0.00,,,-99.99,13.000000,,2013-04-17 00:52:00,
2013-04-17 01:02:00,67.0,54.0,30.48,SE,132,3.0,6.0,63,0.00,,,-99.99,13.000000,,2013-04-17 01:02:00,
2013-04-17 01:12:00,67.0,54.0,30.48,SE,132,3.0,6.0,63,0.00,,,-99.99,13.000000,,2013-04-17 01:12:00,
2013-04-17 01:32:00,65.0,53.0,30.49,SSE,147,6.0,9.0,64,0.00,,,0.00,0.000000,,2013-04-17 01:32:00,
2013-04-17 01:42:00,65.0,53.0,30.49,SSE,147,6.0,9.0,64,0.00,,,0.00,0.000000,,2013-04-17 01:42:00,
2013-04-17 01:52:00,65.0,53.0,30.49,SSE,147,6.0,9.0,64,0.00,,,0.00,0.000000,,2013-04-17 01:52:00,
2013-04-17 02:02:00,65.0,53.0,30.49,SSE,147,6.0,9.0,64,0.00,,,0.00,0.000000,,2013-04-17 02:02:00,
2013-04-17 02:12:00,65.0,53.0,30.49,SSE,147,6.0,9.0,64,0.00,,,0.00,0.000000,,2013-04-17 02:12:00,
2013-04-17 02:42:00,65.0,55.0,30.50,South,174,6.0,13.0,70,0.00,,,0.00,0.000000,,2013-04-17 02:42:00,
2013-04-17 02:52:00,65.0,55.0,30.50,South,174,6.0,13.0,70,0.00,,,0.00,0.000000,,2013-04-17 02:52:00,
2013-04-17 03:02:00,65.0,55.0,30.50,South,174,6.0,13.0,70,0.00,,,0.00,0.000000,,2013-04-17 03:02:00,
2013-04-17 03:12:00,65.0,55.0,30.50,South,174,6.0,13.0,70,0.00,,,0.00,0.000000,,2013-04-17 03:12:00,
2013-04-17 03:43:00,64.0,58.0,30.51,South,181,6.0,12.0,80,0.00,,,0.00,0.000000,,2013-04-17 03:43:00,
2013-04-17 03:53:00,64.0,58.0,30.51,South,181,6.0,12.0,80,0.00,,,0.00,0.000000,,2013-04-17 03:53:00,
2013-04-17 04:03:00,64.0,58.0,30.51,South,181,6.0,12.0,80,0.00,,,0.00,0.000000,,2013-04-17 04:03:00,
2013-04-17 04:13:00,64.0,58.0,30.51,South,181,6.0,12.0,80,0.00,,,0.00,0.000000,,2013-04-17 04:13:00,
2013-04-17 04:33:00,65.0,61.0,30.52,South,183,6.0,12.0,88,0.00,,,0.00,0.000000,,2013-04-17 04:33:00,
2013-04-17 04:43:00,65.0,61.0,30.52,South,183,6.0,12.0,88,0.00,,,0.00,0.000000,,2013-04-17 04:43:00,
2013-04-17 04:53:00,65.0,61.0,30.52,South,183,6.0,12.0,88,0.00,,,0.00,0.000000,,2013-04-17 04:53:00,
2013-04-17 05:03:00,65.0,61.0,30.52,South,183,6.0,12.0,88,0.00,,,0.00,0.000000,,2013-04-17 05:03:00,
2013-04-17 05:12:00,65.0,61.0,30.52,South,183,6.0,12.0,88,0.00,,,0.00,0.000000,,2013-04-17 05:12:00,
2013-04-17 05:32:00,63.0,62.0,30.50,South,189,6.0,11.0,95,0.00,,,0.00,0.000000,,2013-04-17 05:32:00,
2013-04-17 05:43:00,63.0,62.0,30.50,South,189,6.0,11.0,95,0.00,,,0.00,0.000000,,2013-04-17 05:43:00,
2013-04-17 05:52:00,63.0,62.0,30.50,South,189,6.0,11.0,95,0.00,,,0.00,0.000000,,2013-04-17 05:52:00,
2013-04-17 06:02:00,63.0,62.0,30.50,South,189,6.0,11.0,95,0.00,,,0.00,0.000000,,2013-04-17 06:02:00,
2013-04-17 06:12:00,63.0,62.0,30.50,South,189,6.0,11.0,95,0.00,,,0.00,0.000000,,2013-04-17 06:12:00,
2013-04-17 06:32:00,60.0,60.0,30.50,SSW,193,6.0,11.0,99,0.00,,,0.00,0.000000,,2013-04-17 06:32:00,
2013-04-17 06:42:00,60.0,60.0,30.50,SSW,193,6.0,11.0,99,0.00,,,0.00,0.000000,,2013-04-17 06:42:00,
2013-04-17 06:52:00,60.0,60.0,30.50,SSW,193,6.0,11.0,99,0.00,,,0.00,0.000000,,2013-04-17 06:52:00,
2013-04-17 07:02:00,60.0,60.0,30.50,SSW,193,6.0,11.0,99,0.00,,,0.00,0.000000,,2013-04-17 07:02:00,
2013-04-17 07:12:00,60.0,60.0,30.50,SSW,193,6.0,11.0,99,0.00,,,0.00,0.000000,,2013-04-17 07:12:00,
2013-04-17 07:42:00,61.0,61.0,30.49,SSW,200,6.0,10.0,99,0.00,,,0.00,0.000000,,2013-04-17 07:42:00,
2013-04-17 07:52:00,61.0,61.0,30.49,SSW,200,6.0,10.0,99,0.00,,,0.00,0.000000,,2013-04-17 07:52:00,
2013-04-17 08:02:00,61.0,61.0,30.49,SSW,200,6.0,10.0,99,0.00,,,0.00,0.000000,,2013-04-17 08:02:00,
2013-04-17 08:12:00,61.0,61.0,30.49,SSW,200,6.0,10.0,99,0.00,,,0.00,0.000000,,2013-04-17 08:12:00,
2013-04-17 08:42:00,59.0,59.0,30.48,SSW,195,6.0,10.0,99,0.00,,,0.00,0.000000,,2013-04-17 08:42:00,
2013-04-17 08:52:00,59.0,59.0,30.48,SSW,195,6.0,10.0,99,0.00,,,0.00,0.000000,,2013-04-17 08:52:00,
2013-04-17 09:02:00,59.0,59.0,30.48,SSW,195,6.0,10.0,99,0.00,,,0.00,0.000000,,2013-04-17 09:02:00,
2013-04-17 09:12:00,59.0,59.0,30.48,SSW,195,6.0,10.0,99,0.00,,,0.00,0.000000,,2013-04-17 09:12:00,
2013-04-17 09:33:00,60.0,60.0,30.48,SSW,210,6.0,10.0,99,0.00,,,0.00,0.000000,,2013-04-17 09:33:00,
2013-04-17 09:42:00,60.0,60.0,30.48,SSW,210,6.0,10.0,99,0.00,,,0.00,0.000000,,2013-04-17 09:42:00,
2013-04-17 09:53:00,60.0,60.0,30.48,SSW,210,6.0,10.0,99,0.00,,,0.00,0.000000,,2013-04-17 09:53:00,
2013-04-17 10:03:00,60.0,60.0,30.48,SSW,210,6.0,10.0,99,0.00,,,0.00,0.000000,,2013-04-17 10:03:00,
2013-04-17 10:12:00,60.0,60.0,30.48,SSW,210,6.0,10.0,99,0.00,,,0.00,0.000000,,2013-04-17 10:12:00,
2013-04-17 10:33:00,58.0,58.0,30.49,SW,231,5.0,9.0,99,0.00,,,0.00,0.000000,,2013-04-17 10:33:00,
2013-04-17 10:43:00,58.0,58.0,30.49,SW,231,5.0,9.0,99,0.00,,,0.00,0.000000,,2013-04-17 10:43:00,
2013-04-17 10:53:00,58.0,58.0,30.49,SW,231,5.0,9.0,99,0.00,,,0.00,0.000000,,2013-04-17 10:53:00,
2013-04-17 11:02:00,58.0,58.0,30.49,SW,231,5.0,9.0,99,0.00,,,0.00,0.000000,,2013-04-17 11:02:00,
2013-04-17 11:12:00,58.0,58.0,30.49,SW,231,5.0,9.0,99,0.00,,,0.00,0.000000,,2013-04-17 11:12:00,
2013-04-17 11:32:00,59.0,59.0,30.51,WSW,240,6.0,10.0,99,0.00,,,0.00,10.000000,,2013-04-17 11:32:00,
2013-04-17 11:42:00,59.0,59.0,30.51,WSW,240,6.0,10.0,99,0.00,,,0.00,10.000000,,2013-04-17 11:42:00,
2013-04-17 11:52:00,59.0,59.0,30.51,WSW,240,6.0,10.0,99,0.00,,,0.00,10.000000,,2013-04-17 11:52:00,
2013-04-17 12:03:00,59.0,59.0,30.51,WSW,240,6.0,10.0,99,0.00,,,0.00,10.000000,,2013-04-17 12:03:00,
2013-04-17 12:12:00,59.0,59.0,30.51,WSW,240,6.0,10.0,99,0.00,,,0.00,10.000000,,2013-04-17 12:12:00,
2013-04-17 12:32:00,61.0,61.0,30.52,WSW,244,4.0,10.0,99,0.00,,,0.00,157.000000,,2013-04-17 12:32:00,
2013-04-17 12:42:00,61.0,61.0,30.52,WSW,244,4.0,10.0,99,0.00,,,0.00,157.000000,,2013-04-17 12:42:00,
2013-04-17 12:52:00,61.0,61.0,30.52,WSW,244,4.0,10.0,99,0.00,,,0.00,157.000000,,2013-04-17 12:52:00,
2013-04-17 13:02:00,61.0,61.0,30.52,WSW,244,4.0,10.0,99,0.00,,,0.00,157.000000,,2013-04-17 13:02:00,
2013-04-17 13:12:00,61.0,61.0,30.52,WSW,244,4.0,10.0,99,0.00,,,0.00,157.000000,,2013-04-17 13:12:00,
2013-04-17 13:32:00,69.0,63.0,30.50,SW,216,7.0,13.0,80,0.00,,,0.00,412.000000,,2013-04-17 13:32:00,
2013-04-17 13:42:00,69.0,63.0,30.50,SW,216,7.0,13.0,80,0.00,,,0.00,412.000000,,2013-04-17 13:42:00,
2013-04-17 13:52:00,69.0,63.0,30.50,SW,216,7.0,13.0,80,0.00,,,0.00,412.000000,,2013-04-17 13:52:00,
2013-04-17 14:02:00,69.0,63.0,30.50,SW,216,7.0,13.0,80,0.00,,,0.00,412.000000,,2013-04-17 14:02:00,
2013-04-17 14:12:00,69.0,63.0,30.50,SW,216,7.0,13.0,80,0.00,,,0.00,412.000000,,2013-04-17 14:12:00,
2013-04-17 14:32:00,72.0,60.0,30.49,SSW,212,5.0,13.0,67,0.00,,,0.00,508.000000,,2013-04-17 14:32:00,
2013-04-17 14:43:00,72.0,60.0,30.49,SSW,212,5.0,13.0,67,0.00,,,0.00,508.000000,,2013-04-17 14:43:00,
2013-04-17 14:52:00,72.0,60.0,30.49,SSW,212,5.0,13.0,67,0.00,,,0.00,508.000000,,2013-04-17 14:52:00,
2013-04-17 15:02:00,72.0,60.0,30.49,SSW,212,5.0,13.0,67,0.00,,,0.00,508.000000,,2013-04-17 15:02:00,
2013-04-17 15:12:00,72.0,60.0,30.49,SSW,212,5.0,13.0,67,0.00,,,0.00,508.000000,,2013-04-17 15:12:00,
2013-04-17 15:33:00,78.0,62.0,30.49,SSW,203,5.0,14.0,58,0.00,,,0.00,737.000000,,2013-04-17 15:33:00,
2013-04-17 15:43:00,78.0,62.0,30.49,SSW,203,5.0,14.0,58,0.00,,,0.00,737.000000,,2013-04-17 15:43:00,
2013-04-17 15:53:00,78.0,62.0,30.49,SSW,203,5.0,14.0,58,0.00,,,0.00,737.000000,,2013-04-17 15:53:00,
2013-04-17 16:03:00,78.0,62.0,30.49,SSW,203,5.0,14.0,58,0.00,,,0.00,737.000000,,2013-04-17 16:03:00,
2013-04-17 16:12:00,78.0,62.0,30.49,SSW,203,5.0,14.0,58,0.00,,,0.00,737.000000,,2013-04-17 16:12:00,
2013-04-17 16:32:00,81.0,60.0,30.48,SW,218,5.0,14.0,49,0.00,,,0.00,939.000000,,2013-04-17 16:32:00,
2013-04-17 16:42:00,81.0,60.0,30.48,SW,218,5.0,14.0,49,0.00,,,0.00,939.000000,,2013-04-17 16:42:00,
2013-04-17 16:52:00,81.0,60.0,30.48,SW,218,5.0,14.0,49,0.00,,,0.00,939.000000,,2013-04-17 16:52:00,
2013-04-17 17:02:00,81.0,60.0,30.48,SW,218,5.0,14.0,49,0.00,,,0.00,939.000000,,2013-04-17 17:02:00,
2013-04-17 17:12:00,81.0,60.0,30.48,SW,218,5.0,14.0,49,0.00,,,0.00,939.000000,,2013-04-17 17:12:00,
2013-04-17 17:33:00,83.0,59.0,30.46,SSW,193,5.0,11.0,45,0.00,,,0.00,979.000000,,2013-04-17 17:33:00,
2013-04-17 17:42:00,83.0,59.0,30.46,SSW,193,5.0,11.0,45,0.00,,,0.00,979.000000,,2013-04-17 17:42:00,
2013-04-17 17:52:00,83.0,59.0,30.46,SSW,193,5.0,11.0,45,0.00,,,0.00,979.000000,,2013-04-17 17:52:00,
2013-04-17 18:02:00,83.0,59.0,30.46,SSW,193,5.0,11.0,45,0.00,,,0.00,979.000000,,2013-04-17 18:02:00,
2013-04-17 18:12:00,83.0,59.0,30.46,SSW,193,5.0,11.0,45,0.00,,,0.00,979.000000,,2013-04-17 18:12:00,
2013-04-17 18:33:00,88.0,61.0,30.45,SSW,207,5.0,13.0,41,0.00,,,0.00,1219.000000,,2013-04-17 18:33:00,
2013-04-17 18:42:00,88.0,61.0,30.45,SSW,207,5.0,13.0,41,0.00,,,0.00,1219.000000,,2013-04-17 18:42:00,
2013-04-17 18:52:00,88.0,61.0,30.45,SSW,207,5.0,13.0,41,0.00,,,0.00,1219.000000,,2013-04-17 18:52:00,
2013-04-17 19:02:00,88.0,61.0,30.45,SSW,207,5.0,13.0,41,0.00,,,0.00,1219.000000,,2013-04-17 19:02:00,
2013-04-17 19:12:00,88.0,61.0,30.45,SSW,207,5.0,13.0,41,0.00,,,0.00,1219.000000,,2013-04-17 19:12:00,
2013-04-17 19:42:00,85.0,58.0,30.43,SSW,212,6.0,14.0,40,0.00,,,0.00,942.000000,,2013-04-17 19:42:00,
2013-04-17 19:52:00,85.0,58.0,30.43,SSW,212,6.0,14.0,40,0.00,,,0.00,942.000000,,2013-04-17 19:52:00,
2013-04-17 20:03:00,85.0,58.0,30.43,SSW,212,6.0,14.0,40,0.00,,,0.00,942.000000,,2013-04-17 20:03:00,
2013-04-17 20:12:00,85.0,58.0,30.43,SSW,212,6.0,14.0,40,0.00,,,0.00,942.000000,,2013-04-17 20:12:00,
2013-04-17 20:33:00,84.0,60.0,30.40,South,174,5.0,12.0,44,0.00,,,0.00,292.000000,,2013-04-17 20:33:00,
2013-04-17 20:42:00,84.0,60.0,30.40,South,174,5.0,12.0,44,0.00,,,0.00,292.000000,,2013-04-17 20:42:00,
2013-04-17 20:52:00,84.0,60.0,30.40,South,174,5.0,12.0,44,0.00,,,0.00,292.000000,,2013-04-17 20:52:00,
2013-04-17 21:03:00,84.0,60.0,30.40,South,174,5.0,12.0,44,0.00,,,0.00,292.000000,,2013-04-17 21:03:00,
2013-04-17 21:12:00,84.0,60.0,30.40,South,174,5.0,12.0,44,0.00,,,0.00,292.000000,,2013-04-17 21:12:00,
2013-04-17 21:43:00,81.0,59.0,30.39,South,186,3.0,11.0,47,0.00,,,0.00,160.000000,,2013-04-17 21:43:00,
2013-04-17 21:53:00,81.0,59.0,30.39,South,186,3.0,11.0,47,0.00,,,0.00,160.000000,,2013-04-17 21:53:00,
2013-04-17 22:02:00,81.0,59.0,30.39,South,186,3.0,11.0,47,0.00,,,0.00,160.000000,,2013-04-17 22:02:00,
2013-04-17 22:13:00,81.0,59.0,30.39,South,186,3.0,11.0,47,0.00,,,0.00,160.000000,,2013-04-17 22:13:00,
2013-04-17 22:43:00,83.0,58.0,30.39,South,171,5.0,10.0,43,0.00,,,0.00,211.000000,,2013-04-17 22:43:00,
2013-04-17 22:53:00,83.0,58.0,30.39,South,171,5.0,10.0,43,0.00,,,0.00,211.000000,,2013-04-17 22:53:00,
2013-04-17 23:02:00,83.0,58.0,30.39,South,171,5.0,10.0,43,0.00,,,0.00,211.000000,,2013-04-17 23:02:00,
2013-04-17 23:12:00,83.0,58.0,30.39,South,171,5.0,10.0,43,0.00,,,0.00,211.000000,,2013-04-17 23:12:00,
2013-04-17 23:32:00,79.0,59.0,30.39,South,171,4.0,10.0,50,0.00,,,0.00,76.000000,,2013-04-17 23:32:00,
2013-04-17 23:42:00,79.0,59.0,30.39,South,171,4.0,10.0,50,0.00,,,0.00,76.000000,,2013-04-17 23:42:00,
2013-04-17 23:52:00,79.0,59.0,30.39,South,171,4.0,10.0,50,0.00,,,0.00,76.000000,,2013-04-17 23:52:00,